Retour au catalogue

TITAN 3C TRANSTAGE DEB

ActifHEO
NORAD 27792·DEBRIS·🇺🇸 United States

Lancé Dec 21, 1965 depuis Cape Canaveral Space Force Station

Loading…

Prochains Passages (prochaines 24 heures)

TLE

FraisSource: Space-Track

Époque: Sep 14, 2026, 22:14 UTC

1 27792U 65108BG  26257.92672843  .00000791  00000-0  23119-2 0  9995
2 27792  26.1985 103.1892 6806406 122.9879 320.6471  2.78380177269173

Suivez TITAN 3C TRANSTAGE DEB en temps réel avec AllMySat

Download on the App Store